Reflectivity
12 -15 13 -7 7 8 -20 -20 -20 -20 -20 -20 -20 -20 -20 -20 -20 -20 -20 -20 -20 -20 -20 -20 -20 -20 -20 -20 -20 -20 -20 -20 -20 -20 -20 -20 -20 -20 -20 -20 -20 -20 -20 -20 -20
-2 -14 -10 2 -20 -20 -20 -20 -20 -20 -20 -20 -20 -20 -20 -20 -20 -20 -20 -20 -20 -20 -20 -20 -20 -20 -20 -20 -20 -20 -20 -20 -20 -20 -20 -20 -20 -20 -20 -20 -20 -20 -20 -20 -2
6 12 -12 -18 -20 -20 -20 -20 -20 -20 -20 -20 -20 -20 -20 -20 -20 -20 -20 -20 -20 -20 -20 -20 -20 -20 -20 -20 -20 -20 -20 -20 -20 -20 -20 -20 -20 -20 -20 -20 -20 -20 -20 -20 -20
-11 2 6 -20 -20 -20 -20 -20 -20 -20 -20 -20 -20 -20 -20 -20 -20 -20 -20 -20 -20 -20 -20 -20 -20 -20 -20 -20 -20 -20 -20 -20 -20 -20 -20 -20 -20 -20 -20 -20 -20 -20 -20 -20 -20
-19 2 -15 4 -7 -20 -20 -20 -20 -20 -20 -20 -20 -20 -20 -20 -20 -20 -20 -20 -20 -20 -20 -20 -20 -20 -20 -20 -20 -20 -20 -20 -20 -20 -20 -20 -20 -20 -20 -20 -20 -20 -20 -20 -20
6 8 9 6 -10 -20 -20 -20 -20 -20 -20 -20 -20 -20 -20 -20 -20 -20 -20 -20 -20 -20 -20 -20 -20 -20 -20 -20 -20 -20 -20 -20 -20 -20 -20 -20 -20 -20 -20 -2 -20 -20 -20 -20 -20
13 6 -11 -20 -20 -20 -20 -20 -20 -20 -20 -20 -20 -20 -20 -20 -20 -20 -20 -20 -20 -20 -20 -20 -20 -20 -20 -20 -20 -20 -20 -20 -20 -20 -20 -20 -20 -20 -20 -20 -20 -20 -20 -20 -20
4 -20 -20 -20 -20 -20 -20 -20 -20 -20 -20 -20 -20 -20 -20 -20 -20 -20 -20 -20 -20 -20 -20 -20 -20 -20 -20 -20 -20 -20 -20 -20 -20 -20 -20 -20 -20 -20 -20 -20 -20 -20 -20 -20 -20
-20 -20 -20 -20 -20 -20 -20 -20 -20 -20 -20 -20 -20 -20 -20 -20 -20 -20 -20 -20 -20 -20 -20 -20 -20 -20 -20 -20 -20 -20 -20 -20 -20 -20 -20 -20 -20 -20 -20 -20 -20 -20 -20 -20 -20
-20 -20 -20 -20 -20 -20 -20 -20 -20 -20 -20 -20 -20 -20 -20 -20 -20 -20 -20 -20 -20 -20 -20 -20 -20 -20 -20 -20 -20 -20 -20 -20 -20 -20 -20 -20 -20 -20 -20 -20 -20 -20 -20 -20 -20
-20 -20 -20 -20 -20 -20 -15 -20 -20 -20 -20 -20 -20 -20 -20 -20 -20 -20 -20 -20 -20 -20 -20 -20 -20 -20 -20 -20 -20 -20 -20 -20 -20 -20 -20 -20 -20 -20 -20 -20 -20 -20 -20 -20 -20
-20 -20 -20 -20 -20 -20 -20 -20 -20 -20 -20 -20 -20 -20 -20 -20 -20 -20 -20 -20 -20 -20 -20 -20 -20 -20 -20 -20 -20 -20 -20 -20 -20 -20 -20 -20 -20 -20 -20 -20 -20 -20 -20 -20 -20
-20 -20 -20 -20 -20 -20 -20 -20 -20 -20 -20 -20 -20 -20 -20 -20 -20 -20 -20 -20 -20 -20 -20 -20 -20 -20 -20 -20 -20 -20 -20 -20 -20 -20 -20 -20 -20 -20 -20 -20 -20 -20 -20 -20 -20
-20 -20 -12 -20 -20 -20 -20 -20 -20 -20 -20 -20 -20 -20 -20 -20 -20 -20 -20 -20 -20 -20 -20 -20 -20 -20 -20 -20 -20 -20 -20 -20 -20 -20 -20 -20 -20 -20 -20 -20 -20 -20 -20 -20 -20
-7 11 6 -17 -20 -20 -20 -20 -20 -20 -20 -20 -20 -20 -20 -20 -20 -20 -20 -20 -20 -20 -20 -20 -20 -20 -20 -20 -20 -20 -20 -20 -20 -20 -20 -20 -20 -20 -20 -20 -20 -20 -20 -20 -20
11 14 11 -7 -20 -20 -20 -20 -20 -20 -20 -20 -20 -20 -20 -20 -20 -20 -20 -20 -20 -20 -20 -20 -20 -20 -20 -20 -20 -20 -20 -20 -20 -20 -20 -20 -20 -20 -20 -20 -20 -20 -20 -20 -20
14 14 -2 -20 -20 -20 -20 -20 -20 -20 -20 -20 -20 -20 -20 -20 -20 -20 -20 -20 -20 -20 -20 -20 -20 -20 -20 -20 -20 -20 -20 -20 -20 -20 -20 -20 -20 -20 -20 -20 -20 -20 -20 -20 -20
10 8 -18 -20 -20 -20 -20 -20 -20 -20 -20 -20 -20 -20 -20 -20 -20 -20 -20 -20 -20 -20 -20 -20 -20 -20 -20 -20 -20 -20 -20 -20 -20 -20 -20 -20 -20 -20 -20 -20 -20 -20 -20 -20 -20
-20 -20 -20 -20 -20 -20 -20 -20 -20 -20 -20 -20 -20 -20 -20 -20 -20 -20 -20 -20 -20 -20 -20 -20 -20 -20 -20 -20 -20 -20 -20 -20 -20 -20 -20 -20 -20 -20 -20 -20 -20 -20 -20 -20 -20
-20 -20 -20 -20 -20 -20 -20 -20 -20 -20 -20 -20 -20 -20 -20 -20 -20 -20 -20 -20 -20 -20 -20 -20 -20 -20 -20 -20 -20 -20 -20 -20 -20 -20 -20 -20 -20 -20 -20 -20 -20 -20 -20 -20 -20
-20 -20 -20 -20 -20 -20 -20 -20 -20 -20 -20 -20 -20 -20 -20 -20 -20 -20 -20 -20 -20 -20 -20 -20 -20 -20 -20 -20 -20 -20 -20 -20 -20 -20 -20 -20 -20 -20 -20 -20 -20 -20 -20 -20 -20
-20 -20 -20 -20 -20 -20 -20 -20 -20 -20 -20 -20 -20 -20 -20 -20 -20 -20 -20 -20 -20 -20 -20 -20 -20 -20 -20 -20 -20 -20 -20 -20 -20 -20 -20 -20 -20 -20 -20 -20 -20 -20 -20 -20 -20
-20 -20 -20 -20 -20 -20 -20 -20 -20 -20 -20 -20 -20 -20 -20 -20 -20 -20 -20 -20 -20 -20 -20 -20 -20 -20 -20 -20 -20 -20 -20 -20 -20 -20 -20 -20 -20 -20 -20 -20 -20 -20 -20 -20 -20
-20 -20 -20 -20 -20 -20 -20 -20 -20 -20 -20 -20 -20 -20 -20 -20 -20 -20 -20 -20 -20 -20 -20 -20 -20 -20 -20 -20 -20 -20 -20 -20 -20 -20 -20 -20 -20 -20 -20 -20 -20 -20 -20 -20 -20
-20 -20 -20 -20 -20 -20 -20 -20 -20 -20 -20 -20 -20 -20 -20 -20 -20 -20 -20 -20 -20 -20 -20 -20 -20 -20 -20 -20 -20 -20 -20 -20 -20 -20 -20 -20 -20 -20 -20 -20 -20 -20 -20 -20 -20
-20 -20 -20 -20 -20 -20 -20 -20 -20 -20 -20 -20 -20 -20 -20 -20 -20 -20 -20 -20 -20 -20 -20 -20 -20 -20 -20 -20 -20 -20 -20 -20 -20 -20 -20 -20 -20 -20 -20 -20 -20 -20 -20 -20 -20
-20 -20 -20 -20 -20 -20 -20 -20 -20 -20 -20 -20 -20 -20 -20 -20 -20 -20 -20 -20 -20 -20 -20 -20 -20 -20 -20 -20 -20 -20 -20 -20 -20 -20 -20 -20 -20 -20 -20 -20 -20 -20 -20 -20 -20
Wind_Speed
12 12 13 13 13 14 14 14 15 15 15 16 16 16 15 16 15 2 4 1 7 18 14 11 6 5 4 2 3 2 2 3 3 3 4 4 3 3 3 9 3 2 5 12 22
12 12 13 14 14 14 14 15 15 16 15 16 16 16 15 14 4 4 3 7 22 19 13 12 8 6 2 0 2 1 1 3 2 4 7 1 3 6 5 10 3 11 13 21 21
12 12 12 14 15 16 16 15 15 15 16 15 16 15 13 10 4 0 2 14 21 14 8 5 7 3 0 1 2 2 3 3 7 9 9 4 3 4 6 8 9 12 19 22 21
12 12 13 13 15 16 17 16 16 16 16 15 15 15 15 3 5 2 5 15 17 6 11 7 7 3 2 2 4 5 7 5 4 5 3 3 3 5 7 3 4 16 23 22 21
12 13 13 13 14 16 17 16 16 16 16 15 14 13 4 1 3 4 3 14 12 5 6 5 4 2 3 1 2 7 8 9 11 7 3 4 2 1 4 3 12 18 21 22 20
13 13 13 14 15 16 17 17 16 16 16 14 11 11 2 3 1 3 9 13 9 5 5 5 2 2 5 2 2 5 12 14 6 2 2 3 2 2 4 12 16 19 21 20 20
14 15 15 15 15 15 16 17 18 17 15 11 8 2 1 5 8 4 1 3 6 5 4 3 3 3 2 6 3 5 6 3 8 3 2 3 10 8 11 15 17 19 17 18 17
15 15 15 15 16 16 17 18 18 16 12 6 4 2 6 2 2 4 4 4 4 7 3 3 1 3 4 4 2 5 2 5 7 2 3 3 10 1 16 16 16 19 17 18 19
15 16 16 16 17 17 16 17 14 4 3 5 2 2 4 3 3 2 6 4 6 3 3 3 2 1 2 2 2 6 3 6 7 1 2 3 13 2 13 14 15 17 18 19 19
15 16 17 17 16 16 19 12 2 5 2 2 1 3 2 1 2 2 3 4 2 6 5 4 2 2 2 3 6 2 4 3 6 6 6 9 18 11 12 16 17 18 18 18 20
16 15 16 17 17 16 7 4 3 3 2 3 1 3 4 8 3 1 2 7 3 2 5 2 6 8 9 4 4 2 3 9 7 8 9 7 15 19 11 16 17 18 19 20 22
17 17 16 16 16 11 2 3 4 2 4 3 7 7 5 3 3 1 4 6 4 7 2 3 9 7 2 6 4 2 6 10 5 6 6 12 16 9 5 11 17 18 19 20 19
17 16 17 18 19 2 2 6 3 5 2 2 3 3 1 6 3 4 7 4 3 7 6 9 2 5 5 4 5 6 5 7 8 9 3 8 6 7 1 6 8 18 18 20 22
16 17 16 22 2 2 1 2 5 6 2 3 1 2 4 2 2 1 5 3 2 9 6 6 2 5 4 6 6 14 4 5 7 7 5 5 5 6 7 10 9 13 17 18 20
16 16 14 9 4 2 3 8 2 4 3 3 3 4 2 2 2 3 2 2 7 6 6 4 3 6 12 14 8 8 4 5 3 3 4 2 4 5 5 10 10 7 11 18 20
17 14 11 1 2 4 6 5 3 3 4 3 4 4 5 1 2 2 3 4 3 4 2 5 1 4 3 4 8 4 3 2 3 2 6 3 5 5 5 4 11 9 7 9 16
15 12 4 1 1 6 5 2 2 3 2 3 2 1 2 4 4 4 6 7 5 5 6 2 10 5 4 7 3 5 4 4 7 6 7 3 4 6 11 8 10 16 8 6 13
15 3 5 4 3 8 1 1 3 1 2 1 2 3 2 0 2 1 5 7 2 3 2 3 4 8 7 14 6 8 10 6 9 8 6 4 5 6 6 11 11 10 6 5 11
7 1 2 2 1 2 1 2 2 2 2 4 0 3 2 2 0 2 3 3 4 11 8 5 4 1 6 4 9 7 6 2 4 1 5 3 5 12 6 7 6 6 1 1 7
2 2 4 5 2 1 2 2 2 3 3 1 1 0 2 2 2 1 2 2 1 7 3 3 6 2 2 5 3 5 9 5 1 6 8 5 4 7 12 11 13 13 12 9 3
1 3 4 3 3 3 2 1 4 5 5 2 1 3 1 1 1 1 1 2 2 2 5 4 4 2 2 7 8 5 5 3 2 2 6 7 5 1 5 7 11 13 13 7 11
1 3 3 3 1 1 1 1 3 4 2 3 2 2 3 3 0 1 2 1 3 1 0 1 1 5 9 2 3 1 4 6 5 6 2 3 5 2 3 6 6 14 15 12 7
3 2 1 3 2 2 2 2 2 4 4 2 1 3 1 2 1 1 1 1 6 1 1 5 3 4 4 5 3 4 4 3 4 2 7 5 3 5 6 7 8 11 15 12 12
2 3 2 3 2 1 2 2 4 2 2 3 3 2 1 1 2 1 1 2 5 3 4 3 2 6 6 2 1 3 4 4 6 5 7 5 5 10 6 11 15 14 15 16 11
4 2 3 2 2 1 1 2 2 4 2 4 3 7 3 1 1 1 1 4 1 3 2 2 4 2 5 4 4 3 3 5 8 4 8 4 10 8 4 9 10 14 15 16 15
2 0 1 2 0 2 1 2 1 2 3 3 3 7 4 0 1 0 2 2 3 2 1 1 3 1 5 1 5 7 8 10 13 9 13 8 11 8 3 3 7 12 14 13 15
1 1 2 2 2 2 1 1 3 2 3 4 3 6 5 3 5 8 8 10 9 4 4 4 4 5 10 5 6 14 12 14 11 10 11 10 10 3 3 8 9 14 10 11 14
Wind_Direction
348 344 343 342 338 336 335 331 331 332 332 332 332 333 334 330 315 228 245 165 161 160 148 146 155 159 175 291 255 202 335 339 4 307 334 141 134 90 128 141 131 131 141 133 146
348 343 338 337 334 330 329 327 329 329 329 331 329 331 333 334 308 258 284 154 144 152 153 173 161 156 174 220 216 211 169 241 257 243 289 259 163 122 132 152 101 85 104 132 147
345 340 337 333 331 326 325 325 326 325 325 327 328 329 326 321 270 335 22 148 155 164 156 147 132 160 327 243 220 155 244 228 261 229 249 251 227 136 151 187 201 169 151 153 157
342 336 334 331 327 322 321 322 323 323 323 326 328 327 321 261 163 349 309 165 168 172 145 154 147 186 209 208 220 271 248 242 281 215 168 234 137 157 198 133 209 159 159 159 166
341 336 332 329 324 318 317 319 320 320 320 323 326 328 314 240 264 342 39 161 168 173 171 169 172 212 287 185 214 256 291 311 271 295 344 102 240 279 207 119 134 147 163 168 173
339 335 331 328 323 319 315 315 314 314 314 317 321 320 314 250 64 75 121 141 178 184 180 177 233 251 293 257 251 239 291 298 331 308 104 276 230 243 136 137 141 158 171 176 178
339 334 331 326 322 315 311 311 309 307 302 303 306 312 143 242 130 46 171 182 178 200 188 224 227 224 312 303 336 258 313 356 29 70 108 227 257 227 150 159 160 169 176 181 191
334 330 327 324 319 314 313 310 305 299 287 273 257 238 251 186 157 260 197 194 211 226 254 312 216 277 255 303 320 11 34 1 10 75 25 283 288 48 167 171 176 179 180 190 194
330 328 327 322 317 315 313 312 305 285 161 167 204 321 260 320 223 140 190 187 166 202 262 79 179 250 228 333 1 22 352 348 347 65 109 235 295 353 179 194 184 191 193 192 195
329 325 323 320 319 320 318 303 138 124 97 211 188 260 246 91 309 339 165 172 142 127 136 171 133 182 138 216 276 312 314 348 319 323 298 278 276 271 208 211 209 198 197 202 202
329 322 319 320 321 325 324 149 200 150 197 243 19 312 325 317 267 103 138 136 121 93 201 67 214 210 215 201 159 175 281 306 307 311 309 304 290 291 250 222 217 209 204 205 210
327 323 322 322 324 324 246 94 94 29 311 242 261 275 264 293 295 189 169 166 173 207 156 189 232 214 162 187 201 242 303 310 293 297 316 316 306 326 199 225 218 216 215 211 206
325 323 326 329 322 249 352 122 44 182 262 296 207 230 244 181 207 188 181 130 149 189 197 229 146 163 207 186 213 241 265 294 293 321 249 308 287 318 272 238 217 221 221 216 206
324 328 333 330 278 342 134 31 311 201 16 55 154 129 151 230 148 206 192 152 137 217 169 248 175 211 213 234 216 255 202 267 296 326 313 340 307 295 331 307 223 221 219 216 212
324 326 333 343 315 209 40 329 151 217 114 10 101 119 140 212 113 92 145 99 164 160 197 188 187 198 227 234 202 262 159 285 309 272 287 171 248 284 325 302 320 360 221 217 210
323 323 330 167 243 283 328 316 206 238 88 77 121 152 166 177 107 118 153 78 88 133 242 261 263 233 231 185 191 119 195 113 116 225 254 49 268 264 265 257 314 334 8 218 205
323 310 264 270 67 332 302 178 217 54 323 37 34 172 170 157 187 182 159 180 191 183 229 250 231 222 192 233 187 189 219 242 233 224 261 124 232 271 283 279 277 305 306 202 198
324 287 196 237 304 338 257 173 90 51 6 13 23 90 142 68 112 104 149 171 187 147 157 293 259 188 166 219 229 204 229 230 241 240 252 171 230 263 262 304 286 269 257 215 197
314 159 176 328 279 210 119 100 99 192 310 340 79 93 87 114 116 166 202 219 220 198 210 190 250 220 201 184 213 157 203 323 160 100 253 275 257 276 279 267 307 295 315 268 200
191 138 29 358 132 234 87 139 232 230 310 244 105 353 129 40 168 50 184 138 93 210 248 226 260 226 68 155 66 251 137 175 213 221 247 211 264 259 289 318 342 328 330 337 262
202 101 16 360 276 52 90 232 275 254 228 230 159 129 128 130 105 88 65 108 17 93 185 168 240 164 244 212 196 162 187 65 135 277 259 259 246 259 306 304 305 306 311 324 295
94 90 28 289 67 27 89 261 313 306 63 256 249 233 188 183 217 192 151 48 360 176 348 177 210 246 242 71 343 219 193 194 244 192 236 317 256 179 342 333 309 306 321 336 321
73 79 70 291 88 56 331 292 279 329 348 2 271 237 193 159 232 234 321 53 18 52 150 177 198 287 199 144 140 227 192 180 139 155 187 204 219 194 329 347 2 337 335 333 322
124 125 62 62 14 60 9 7 347 337 258 341 333 88 133 116 38 169 309 314 359 66 75 177 211 252 267 320 318 231 181 178 231 203 166 225 274 299 339 347 344 343 349 338 326
14 79 7 132 114 89 290 337 326 350 9 355 87 45 4 162 126 188 301 315 201 93 94 270 283 252 269 262 246 257 249 207 228 243 230 230 212 268 332 336 327 324 337 339 334
58 78 87 84 47 179 165 200 222 343 308 12 61 360 355 269 54 161 353 237 299 316 77 102 283 276 287 262 247 268 260 257 240 252 248 251 250 257 273 331 325 329 335 350 347
51 108 291 48 98 205 204 153 143 348 239 258 39 342 300 290 314 291 272 268 268 282 288 273 230 221 265 301 281 262 245 233 232 218 224 218 246 164 277 334 335 321 326 337 341